Overview Statistics Trail Chart Weather Telemetry Raw packets
 

This is the latest recevied weather packets stored in our database for station/object KD2FKI. If no packets are shown the sender has not sent any weather packets the latest 10 day(s).

<< 35 36 37 38 39 40 41 >>
Time Temp. Humidity Pressure Rain* Wind** Luminosity Snow
1777657233 20° C 40% - 0 mm - - -
1777656641 20° C 39% - 0 mm - - -
1777656032 20° C 40% - 0 mm - - -
1777655439 20° C 40% - 0 mm - - -
1777654846 20° C 40% - 0 mm - - -
1777654256 19.44° C 41% - 0 mm - - -
1777653645 19.44° C 41% - 0 mm - - -
1777653033 18.89° C 40% - 0 mm - - -
1777652441 17.78° C 42% - 0 mm - - -
1777651832 18.33° C 42% - 0 mm - - -
1777651239 17.78° C 42% - 0 mm - - -
1777650629 17.78° C 42% - 0 mm - - -
1777650036 17.78° C 43% - 0 mm - - -
1777649465 17.22° C 45% - 0 mm - - -
1777648835 16.67° C 46% - 0 mm - - -
1777648246 15.56° C 47% - 0 mm - - -
1777647632 15° C 47% - 0 mm - - -
1777647043 15° C 48% - 0 mm - - -
1777646430 14.44° C 49% - 0 mm - - -
1777645857 14.44° C 48% - 0 mm - - -
1777645245 13.89° C 52% - 0 mm - - -
1777644635 13.89° C 48% - 0 mm - - -
1777644045 13.89° C 55% - 0 mm - - -
1777643437 13.89° C 58% - 0 mm - - -
1777642841 12.78° C 63% - 0 mm - - -

* Rain latest hour (hover to see other rain measurements)
** Current wind speed in m/s (hover to see current wind gust speed)